sat.trackr.live / text

‹ back to catalog

STARLINK-35923

NORAD 66641 · 2025-271AA

PAYLOAD ACTIVE UNKNOWN

§ Identity

Operator
Country
US
Launch date
2025-11-23
Launch site
AFWTR
Launch vehicle
Mass (kg)
RCS (m²)

Purposes: comms

External: N2YO · Heavens-Above · Gunter

§ Orbital elements

Epoch: 2026-09-19T17:18:14.751648Z

Period
93.85 min
Inclination
53.1577°
Eccentricity
0.0001102
Mean motion
15.34434927 rev/d
Perigee alt
461.8 km
Apogee alt
463.4 km
Semi-major
6,840.7 km
B*
5.2501e-4
RAAN
317.2682°
Arg perigee
82.6809°
Mean anomaly
277.4319°
Rev number
4,729

§ Raw data

STARLINK-359231 66641U 25271AA  26262.72100407  .00017423  00000+0  52501-3 0  99912 66641  53.1577 317.2682 0001102  82.6809 277.4319 15.34434927 47296

JSON: /api/v1/satellites/66641 · /tle

For live sub-satellite position, see the globe view (requires WebGL).

§ Visibility from observer

Set your observer location to see the next 7 days of passes ≥ 10°. The values pass through the URL so the page stays shareable.

No JS? Fill the form by hand. The geolocation button needs JavaScript.